Location: Camps Bay
(33.9517°S, 18.3844°E)
Time: 17:12:18
(UTC+00:00)

Cosmos 1354 Rocket - Pass Details

Date: 18 January 2020
Orbit: 764 x 784 km, 74.0° (Epoch: 25 February)

Event Time Altitude Azimuth Distance (km) Brightness Sun altitude
Exits shadow 01:27:24 58° 266° (W) 910 4.1 -24.6°
Maximum altitude 01:27:41 59° 251° (WSW) 902 4.2 -24.6°
Drops below altitude 10° 01:32:56 10° 171° (S) 2,339 7.3 -23.9°
Sets 01:35:22 0° 167° (SSE) 3,270 8.3 -23.6°
